Back to catalog

CZ-6A R/B

AliveSSO
NORAD 54236·ROCKET BODY·🇨🇳 China

Launched Nov 11, 2022 from Taiyuan Satellite Launch Center

Loading…

Next Passes (next 24 hours)

TLE

FreshSource: Space-Track

Epoch: Sep 14, 2026, 10:31 UTC

1 54236U 22151B   26257.43878965  .00000088  00000-0  74526-4 0  9997
2 54236  98.8571 256.9630 0046404  91.6133 269.0353 14.09313435197213

Track CZ-6A R/B in real time with AllMySat

Download on the App Store